Weather History for Iowa City, IA

Change the Weather History Date:

Sunday, June 2, 2013

  Actual Average Record
Temperature  
Mean Temperature 57 °F 68 °F  
Max Temperature 65 °F 78 °F 92 °F (1988)
Min Temperature 49 °F 57 °F 39 °F (1956)
Degree Days  
Heating Degree Days 8 2  
Month to date heating degree days 8 4  
Since 1 June heating degree days 8 4  
Since 1 July heating degree days 6436 6365  
Cooling Degree Days 0 4  
Month to date cooling degree days 2 8  
Year to date cooling degree days 89 69  
Since 1 June cooling degree days 2 8  
Growing Degree Days 8 (Base 50)    
Moisture  
Dew Point 48 °F    
Average Humidity 69    
Maximum Humidity 86    
Minimum Humidity 52    
Precipitation  
Precipitation 0.00 in 0.15 in 1.22 in (1970)
Month to date precipitation T 0.31  
Year to date precipitation 21.24 12.40  
Sea Level Pressure  
Sea Level Pressure 29.98 in    
Wind  
Wind Speed 9 mph (NW)    
Max Wind Speed 18 mph    
Max Gust Speed 25 mph    
Visibility 10 miles    
Events      
T = Trace of Precipitation, MM = Missing Value Source: NWS Daily Summary

Daily Weather History Graph

Daily Weather History Graph

Search for Another Location

Airport:

Trip Planner

Search our weather history database for the weather conditions in past years. The results will help you decide how hot, cold, wet, or windy it might be!

Date:

Astronomy

Jun. 02, 2013 Rise Set
Actual Time 5:33 AM CDT 8:35 PM CDT
Civil Twilight 5:00 AM CDT 9:08 PM CDT
Nautical Twilight 4:17 AM CDT 9:51 PM CDT
Astronomical Twilight 3:27 AM CDT 10:41 PM CDT
Moon 2:05 AM CDT (6/2) 3:02 PM CDT (6/2)
Length of Visible Light 16h 08m
Length of Day
15h 01m
Waning Crescent, 30% of the Moon is Illuminated
Jun 2
Waning Crescent
Jun 8
New
Jun 16
First Quarter
Jun 23
Full
Jun 29
Last Quarter

Hourly Weather History & Observations

Time (CDT) Temp. Dew Point Humidity Pressure Visibility Wind Dir Wind Speed Gust Speed Precip Events Conditions
12:52 AM 62.1 °F 57.0 °F 84% 29.84 in 10.0 mi WNW 10.4 mph - N/A   Overcast
1:52 AM 62.1 °F 55.9 °F 80% 29.85 in 10.0 mi NW 11.5 mph 19.6 mph N/A   Overcast
2:52 AM 61.0 °F 54.0 °F 78% 29.86 in 10.0 mi NW 16.1 mph 23.0 mph N/A   Overcast
3:52 AM 59.0 °F 54.0 °F 83% 29.88 in 10.0 mi NW 16.1 mph 23.0 mph N/A   Overcast
4:13 AM 57.2 °F 53.6 °F 88% 29.89 in 10.0 mi NW 16.1 mph - N/A   Overcast
4:25 AM 57.2 °F 51.8 °F 82% 29.90 in 10.0 mi NW 10.4 mph 23.0 mph N/A   Overcast
4:52 AM 55.9 °F 51.1 °F 84% 29.91 in 10.0 mi NNW 9.2 mph 20.7 mph N/A   Mostly Cloudy
5:52 AM 55.9 °F 48.9 °F 77% 29.94 in 10.0 mi NNW 16.1 mph 20.7 mph N/A   Overcast
6:00 AM 55.4 °F 48.2 °F 77% 29.95 in 10.0 mi NW 12.7 mph 20.7 mph N/A   Overcast
6:33 AM 55.4 °F 46.4 °F 72% 29.96 in 10.0 mi NW 16.1 mph - N/A   Overcast
6:52 AM 54.0 °F 46.0 °F 75% 29.96 in 10.0 mi NW 16.1 mph 23.0 mph N/A   Overcast
7:52 AM 54.0 °F 45.0 °F 72% 29.99 in 10.0 mi NW 12.7 mph - N/A   Overcast
8:41 AM 53.6 °F 44.6 °F 72% 30.01 in 10.0 mi NNW 13.8 mph - N/A   Overcast
8:52 AM 54.0 °F 45.0 °F 72% 30.01 in 10.0 mi NNW 16.1 mph 21.9 mph N/A   Overcast
9:52 AM 55.0 °F 45.0 °F 69% 30.02 in 10.0 mi North 12.7 mph 23.0 mph N/A   Overcast
10:52 AM 57.0 °F 44.1 °F 62% 30.03 in 10.0 mi North 10.4 mph - N/A   Overcast
10:59 AM 57.2 °F 44.6 °F 63% 30.03 in 10.0 mi NNW 16.1 mph 21.9 mph N/A   Overcast
11:52 AM 57.0 °F 44.1 °F 62% 30.04 in 10.0 mi NNW 12.7 mph - N/A   Overcast
12:52 PM 59.0 °F 45.0 °F 60% 30.03 in 10.0 mi NW 11.5 mph 18.4 mph N/A   Overcast
1:52 PM 59.0 °F 45.0 °F 60% 30.04 in 10.0 mi NNW 9.2 mph - N/A   Overcast
2:52 PM 62.1 °F 46.0 °F 56% 30.04 in 10.0 mi NNW 8.1 mph - N/A   Overcast
3:52 PM 64.0 °F 46.0 °F 52% 30.04 in 10.0 mi WNW 6.9 mph - N/A   Mostly Cloudy
4:52 PM 63.0 °F 45.0 °F 52% 30.03 in 10.0 mi NW 6.9 mph - N/A   Scattered Clouds
5:52 PM 62.1 °F 44.1 °F 52% 30.03 in 10.0 mi WNW 6.9 mph - N/A   Clear
6:52 PM 62.1 °F 44.1 °F 52% 30.03 in 10.0 mi NW 6.9 mph - N/A   Clear
7:52 PM 62.1 °F 45.0 °F 53% 30.02 in 10.0 mi North 4.6 mph - N/A   Clear
8:52 PM 55.9 °F 46.9 °F 72% 30.02 in 10.0 mi Calm Calm - N/A   Clear
9:52 PM 51.1 °F 46.0 °F 83% 30.04 in 10.0 mi Calm Calm - N/A   Clear
10:52 PM 53.1 °F 46.0 °F 77% 30.04 in 10.0 mi Calm Calm - N/A   Clear
11:52 PM 50.0 °F 46.9 °F 89% 30.06 in 10.0 mi Calm Calm - N/A   Mostly Cloudy